TimeEDT,TemperatureF,Dew PointF,Humidity,Sea Level PressureIn,VisibilityMPH,Wind Direction,Wind SpeedMPH,Gust SpeedMPH,PrecipitationIn,Events,Conditions,WindDirDegrees,DateUTC
12:53 AM,39.0,27.0,62,30.19,10.0,NNW,15.0,-,N/A,,Clear,340,2012-10-29 04:53:00
1:53 AM,37.0,28.0,70,30.18,10.0,NNW,15.0,-,N/A,,Clear,340,2012-10-29 05:53:00
2:53 AM,37.0,28.0,70,30.18,10.0,NNW,16.1,-,N/A,,Clear,340,2012-10-29 06:53:00
3:53 AM,37.9,27.0,65,30.17,10.0,North,15.0,-,N/A,,Mostly Cloudy,350,2012-10-29 07:53:00
4:53 AM,37.0,27.0,67,30.18,10.0,North,17.3,-,N/A,,Clear,350,2012-10-29 08:53:00
5:53 AM,36.0,26.1,67,30.17,10.0,North,16.1,-,N/A,,Clear,350,2012-10-29 09:53:00
6:53 AM,36.0,26.1,67,30.17,10.0,NNW,15.0,-,N/A,,Clear,340,2012-10-29 10:53:00
7:53 AM,36.0,26.1,67,30.18,10.0,NNW,16.1,-,N/A,,Clear,340,2012-10-29 11:53:00
8:53 AM,37.0,26.1,65,30.18,10.0,North,17.3,-,N/A,,Clear,350,2012-10-29 12:53:00
9:53 AM,37.9,27.0,65,30.17,10.0,North,18.4,-,N/A,,Clear,350,2012-10-29 13:53:00
10:53 AM,39.0,27.0,62,30.16,10.0,North,20.7,26.5,N/A,,Clear,350,2012-10-29 14:53:00
11:53 AM,41.0,28.0,60,30.15,10.0,North,21.9,28.8,N/A,,Partly Cloudy,360,2012-10-29 15:53:00
12:53 PM,43.0,28.0,56,30.13,10.0,North,24.2,29.9,N/A,,Clear,360,2012-10-29 16:53:00
1:53 PM,43.0,28.0,56,30.11,10.0,North,20.7,31.1,N/A,,Mostly Cloudy,350,2012-10-29 17:53:00
2:53 PM,44.1,27.0,51,30.09,10.0,North,24.2,29.9,N/A,,Mostly Cloudy,360,2012-10-29 18:53:00
3:53 PM,44.6,26.6,49,30.06,10.0,North,19.6,31.1,N/A,,Partly Cloudy,360,2012-10-29 19:53:00
4:53 PM,45.0,24.1,44,30.05,10.0,North,20.7,33.4,N/A,,Clear,360,2012-10-29 20:53:00
5:53 PM,44.1,24.1,45,30.03,10.0,North,19.6,29.9,N/A,,Clear,360,2012-10-29 21:53:00
6:53 PM,43.0,21.9,43,30.02,10.0,North,21.9,31.1,N/A,,Clear,360,2012-10-29 22:53:00
7:53 PM,42.1,21.0,43,30.00,10.0,North,21.9,27.6,N/A,,Clear,350,2012-10-29 23:53:00
8:53 PM,41.0,21.0,45,29.97,10.0,North,23.0,33.4,N/A,,Clear,350,2012-10-30 00:53:00
9:53 PM,41.0,21.0,45,29.94,10.0,North,24.2,36.8,N/A,,Partly Cloudy,360,2012-10-30 01:53:00
10:53 PM,41.0,21.0,45,29.90,10.0,North,24.2,34.5,N/A,,Scattered Clouds,350,2012-10-30 02:53:00
11:53 PM,39.9,21.0,47,29.86,10.0,North,28.8,38.0,N/A,,Overcast,360,2012-10-30 03:53:00